Weather Roundup
Issued by NWS Chicago, IL

Home | Current Version | Previous Version | Text Only | Print | Product List | Glossary On
Versions: 1 2 3 4 5 6 7 8 9 10 11 12 13 14 15 16 17 18 19 20 21 22 23 24 25 26 27 28 29 30 31 32 33 34 35 36 37 38 39 40 41 42 43 44 45 46 47 48 49 50
000
NZUS59 KLOT 291721
HRRLOT

CHICAGO AREA WEATHER ROUNDUP
NATIONAL WEATHER SERVICE CHICAGO/ROMEOVILLE IL
1200 PM CDT SUN MAR 29 2015

NOTE: "FAIR" INDICATES FEW OR NO CLOUDS BELOW 12,000 FEET WITH NO
SIGNIFICANT WEATHER AND/OR OBSTRUCTIONS TO VISIBILITY.

* THESE STATIONS ARE NOT UNDER NWS QUALITY CONTROL. THEY ALSO MAY NOT
  REPORT WEATHER SUCH AS PRECIPITATION OR FOG.

ILZ005-006-012>014-019>023-291800-
NORTHEAST ILLINOIS

CITY           SKY/WX    TMP DP  RH WIND       PRES   REMARKS
OHARE          LGT RAIN  34  26  72 S24G32    29.92F WCI  21
MIDWAY         LGT RAIN  37  25  61 S22G32    29.95F
AURORA         LGT RAIN  35  26  69 S18G31    29.94F WCI  24
LANSING*       RAIN      36  23  58 S22G33    30.00F
JOLIET*        LGT RAIN  36  30  78 S18G28    29.96F
WAUKEGAN       LGT RAIN  35  27  72 S21G35    29.89F WCI  24
DUPAGE AIRPORT LGT RAIN  34  27  75 S23G33    29.94F WCI  22
WHEELING       LGT RAIN  35  26  69 S21G28    29.93F WCI  24
KANKAKEE*      RAIN      36  28  73 S17G24    30.01F
MORRIS*        CLOUDY    35  28  78 S17G23    29.96F WCI  24
LEWIS AIRPORT* LGT RAIN  34  28  79 S20G31    29.94F WCI  23
NORTHERLY IS     N/A     37  24  60 S17         N/A
$$

WIZ051-052-058>065-066-070>072-291800-
SOUTHEAST WISCONSIN

CITY           SKY/WX    TMP DP  RH WIND       PRES   REMARKS
MILWAUKEE      LGT SNOW  35  26  69 S26G35    29.83F WCI  22
KENOSHA*       MIX PCPN  35  27  72 S26G39    29.87F WCI  22
RACINE*        LGT RAIN  36  25  64 S22G35    29.88F
BURLINGTON     CLOUDY    32  28  85 SW21G30   29.86F WCI  20
WAUKESHA       LGT RAIN  30  25  80 S17G35    29.81F FOG     WCI  18
WEST BEND      DRIZZLE   32  28  86 S13G21    29.77F WCI  22
$$

INZ001>003-010>013-019-020-291800-
NORTHWEST INDIANA

CITY           SKY/WX    TMP DP  RH WIND       PRES   REMARKS
GARY*          LGT RAIN  41  10  28 S21G39    30.00F
MICHIGAN CITY* NOT AVBL
RENSSELAER*    NOT AVBL
VALPARAISO     CLOUDY    38  18  44 S21G28    30.04F
$$

LMZ740>746-291800-
SOUTHERN LAKE MICHIGAN

STATION/POSITION TIME  SKY/WX   TEMP WIND        PRES    VSBY
                                AIR  DIR/SP/G
                 (UTC)          (F)  (DEG/KT/KT) (MB)    (MI)
HARRISON CRIB    1700            36  190/ 35/ 41   N/A
BURNHAM HARBOR   1700            36  180/ 19/ 27   N/A
CALUMET HARBOR   1600            39  170/ 18/ 30 1014.9F
BURNS HARBOR     1600            38  190/ 22     1017.3F
MICHIGAN CITY    1700            38  150/ 21/ 29   N/A
$$

ABBREVIATIONS USED IN REMARKS
   TC - TEMPERATURE IN CELSIUS
  WCI - WIND CHILL INDEX
   HX - HEAT INDEX
  VSB - VISIBILITY
$$


USA.gov is the U.S. government's official web portal to all federal, state and local government web resources and services.